Regional Weather Roundup
Issued by NWS

Home | Current Version | Previous Version | Graphics & Text | Print | Product List | Glossary On
Versions: 1 2 3 4 5 6 7 8 9 10 11 12 13 14 15 16 17 18 19 20 21 22 23 24 25 26 27 28 29 30 31 32 33 34 35 36 37 38 39 40 41 42 43 44 45 46 47 48 49 50
066
ASUS43 KFSD 230602
RWRSD

WEATHER ROUNDUP FOR SOUTH DAKOTA
NATIONAL WEATHER SERVICE SIOUX FALLS SD
100 AM CDT SAT SEP 23 2017

NOTE: "FAIR" INDICATES FEW OR NO CLOUDS BELOW 12,000 FEET WITH NO
SIGNIFICANT WEATHER AND/OR OBSTRUCTIONS TO VISIBILITY.


SDZ001>005-009-010-012>017-230700-
NORTHWEST AND NORTH CENTRAL SOUTH DAKOTA

CITY           SKY/WX    TMP DP  RH WIND       PRES   REMARKS
BUFFALO          N/A     44  41  89 NW8       29.98R
FAITH            N/A     45  43  93 NW12      30.01S
MOBRIDGE       CLOUDY    51  46  83 N17G24    29.90F
$$

SDZ012>016-024>037-041>051-057-063-072>074-230700-
SOUTHWEST AND SOUTH CENTRAL SOUTH DAKOTA

CITY           SKY/WX    TMP DP  RH WIND       PRES   REMARKS
RAPID CTY ARPT NOT AVBL
PIERRE         CLOUDY    51  46  83 NW15      29.93S
CUSTER         LGT RAIN  45  42  89 E7        29.96F
ELLSWORTH AFB  CLOUDY    44  44  99 N13       29.98
PHILIP         LGT RAIN  49  43  80 N14       29.98F
PINE RIDGE     CLEAR     47  39  74 NE10      29.97F
SPEARFISH      CLOUDY    41  41 100 NE5       30.03S
WINNER         CLOUDY    53  47  79 N14       29.94S THUNDER
$$

SDZ004>011-016>023-039-040-230700-
NORTHEAST SOUTH DAKOTA

CITY           SKY/WX    TMP DP  RH WIND       PRES   REMARKS
ABERDEEN       CLOUDY    54  52  93 NW16      29.89R
WATERTOWN      TSTM      60  60 100 N20G29    29.84R FOG
BROOKINGS      PTCLDY    62  60  93 N5        29.85R
SISSETON         N/A     57  55  93 N13       29.84R
$$

SDZ017-020-022-023-036>040-048>070-230700-
SOUTHEAST SOUTH DAKOTA

CITY           SKY/WX    TMP DP  RH WIND       PRES   REMARKS
SIOUX FALLS    PTCLDY    67  64  90 NE3       29.84R
HURON          LGT RAIN  55  53  93 N10       29.86F
MITCHELL       MOCLDY    59  55  87 NW12      29.89S
YANKTON        PTCLDY    65  61  87 NW12      29.85R
$$

ABBREVIATIONS USED IN REMARKS
   TC - TEMPERATURE IN CELSIUS
  WCI - WIND CHILL INDEX
   HX - HEAT INDEX
  VSB - VISIBILITY





USA.gov is the U.S. government's official web portal to all federal, state and local government web resources and services.